Location: Newark
(48.5178°N, 4.2361°E)
Time: 07:37:18
(UTC+00:00)

ISS - Visible Passes

Search period start: 08 December 2019 00:00
Search period end: 18 December 2019 00:00
Orbit: 411 x 421 km, 51.6° (Epoch: 08 December)

Date Brightness Start Highest point End Pass type
(mag) Time Alt. Az. Time Alt. Az. Time Alt. Az.
08 Dec -3.0 17:25:23 10° WNW 17:28:39 50° SSW 17:31:04 16° SE visible
09 Dec -3.5 16:36:52 10° WNW 16:40:14 74° SSW 16:43:35 10° ESE visible
09 Dec -0.9 18:14:26 10° W 18:16:31 16° SW 18:18:22 11° S visible
10 Dec -1.4 17:25:29 10° W 17:28:14 24° SW 17:30:59 10° SSE visible
11 Dec -2.0 16:36:47 10° WNW 16:39:53 35° SW 16:42:59 10° SSE visible
12 Dec -0.2 17:26:54 10° WSW 17:27:36 10° SW 17:28:17 10° SW visible
13 Dec -0.6 16:37:06 10° W 16:39:19 17° SW 16:41:31 10° S visible
